Location: �perlecques
(50.8057°N, 2.1521°E)
Time: 21:09:52
(UTC+00:00)

O/OREOS (USA 219) - Visible Passes

Search period start: 19 September 2021 00:00
Search period end: 29 September 2021 00:00
Orbit: 621 x 646 km, 72.0° (Epoch: 22 May)

Date Brightness Start Highest point End Pass type
(mag) Time Alt. Az. Time Alt. Az. Time Alt. Az.
19 Sep ? 02:48:40 17° SE 02:50:54 24° ESE 02:54:30 10° NE visible
19 Sep ? 04:26:09 13° SW 04:30:01 50° WNW 04:34:26 10° NNE visible
20 Sep ? 03:10:54 30° SSE 03:12:43 46° ESE 03:17:03 10° NE visible
20 Sep ? 04:48:23 10° WSW 04:52:19 28° NW 04:56:15 10° N visible
21 Sep ? 01:55:36 13° ESE 01:55:59 13° E 01:58:06 10° ENE visible
21 Sep ? 03:33:04 40° SSW 03:34:42 88° WNW 03:39:15 10° NNE visible
22 Sep ? 02:17:42 26° ESE 02:17:42 26° ESE 02:21:24 10° NE visible
22 Sep ? 03:55:11 31° WSW 03:56:51 46° NW 04:01:13 10° NNE visible
23 Sep ? 02:39:45 51° E 02:39:45 51° E 02:43:53 10° NE visible
23 Sep ? 04:17:13 19° W 04:19:11 26° NW 04:23:00 10° N visible
24 Sep ? 01:24:17 13° ENE 01:24:17 13° ENE 01:25:11 10° ENE visible
24 Sep ? 03:01:45 77° NNW 03:01:45 77° NNW 03:06:03 10° NNE visible
24 Sep ? 04:39:13 11° WNW 04:41:41 16° NW 04:44:32 10° N visible
25 Sep ? 01:46:14 21° ENE 01:46:14 21° ENE 01:48:17 10° NE visible
25 Sep ? 03:23:42 42° NW 03:23:42 42° NW 03:28:00 10° NNE visible
25 Sep ? 05:03:27 10° NW 05:04:21 10° NNW 05:05:15 10° NNW visible
26 Sep ? 02:08:09 32° NE 02:08:09 32° NE 02:10:43 10° NE visible
26 Sep ? 03:45:37 24° NW 03:46:02 24° NW 03:49:45 10° N visible
27 Sep ? 02:30:01 37° NNE 02:30:01 37° NNE 02:32:50 10° NNE visible
27 Sep ? 04:07:29 14° NW 04:08:33 15° NW 04:11:14 10° N visible
28 Sep ? 01:14:25 14° NE 01:14:25 14° NE 01:15:10 10° NE visible
28 Sep ? 02:51:53 31° NNW 02:51:53 31° NNW 02:54:46 10° NNE visible
